Other Public Products
Issued by NWS Charleston, SC

Current Version | Previous Version | Graphics & Text | Print | Product List | Glossary On
Versions: 1 2 3 4 5 6 7 8 9 10 11 12 13 14 15 16 17 18 19 20 21 22 23 24 25 26 27 28 29 30 31 32 33 34 35 36 37 38 39 40 41 42 43 44 45 46 47 48 49 50
553 FPUS82 KCHS 251212 OPUCHS TEST...KCHS/KSAV Gateway Observations...TEST National Weather Service Charleston SC 800 AM EDT TUE JUL 25 2017 NOTE: "fair" indicates few or no clouds below 12,000 feet with no significant weather and/or obstructions to visibility. SCZ050-WAZ558-NCZ071-TXZ119-213-PAZ071-DCZ001-FLZ074-172-MI076- NYZ176-178-MAZ016-IL014-TNZ027-NJZ106-GAZ044-MD014-251300- ...Gateway Observations for Charleston International... CITY SKY/WX TMP DP RH WIND PRES REMARKS Chas Airport MOSUNNY 77 74 90 W5 30.06R 6HR MIN TEMP: 75; 6HR MAX TEMP: 77; Seattle CLEAR 60 51 72 CALM 30.01S 6HR MIN TEMP: 60; 6HR MAX TEMP: 70; Charlotte PTSUNNY 76 73 91 CALM 30.09R 6HR MIN TEMP: 73; 6HR MAX TEMP: 77; Dallas DFW PTCLDY 78 73 84 S8 30.04R 6HR MIN TEMP: 78; 6HR MAX TEMP: 81; Dallas Love PTCLDY 79 72 79 S10 30.06R 6HR MIN TEMP: 78; 6HR MAX TEMP: 81; Philladelphia CLOUDY 68 64 87 E7 30.03R 6HR MIN TEMP: 66; 6HR MAX TEMP: 68; 6HR PCP: TRACE; Wash National PTSUNNY 72 58 61 N9 30.06R 6HR MIN TEMP: 71; 6HR MAX TEMP: 78; Baltimore MOSUNNY 69 60 73 NW8 30.04R 6HR MIN TEMP: 65; 6HR MAX TEMP: 73; Miami PTSUNNY 86 78 77 E6 30.12R HX 98 6HR MIN TEMP: 82; 6HR MAX TEMP: 86; Detroit MOSUNNY 62 52 69 N6 30.22R 6HR MIN TEMP: 56; 6HR MAX TEMP: 62; Newark CLOUDY 64 60 87 N10 30.04R 6HR MIN TEMP: 62; 6HR MAX TEMP: 65; 6HR PCP: TRACE; Laguardia CLOUDY 64 61 90 N7 30.04R 6HR MIN TEMP: 62; 6HR MAX TEMP: 65; J F K PTSUNNY 65 60 84 NE9 30.04R 6HR MIN TEMP: 63; 6HR MAX TEMP: 65; Boston Logan CLOUDY 57 55 93 N10 30.07R 6HR MIN TEMP: 56; 6HR MAX TEMP: 58; Ft. Lauderdale PTSUNNY 84 80 88 CALM 30.11R HX 97 6HR MIN TEMP: 81; 6HR MAX TEMP: 84; Chicago O`Hare MOSUNNY 66 62 87 CALM 30.18R 6HR MIN TEMP: 61; 6HR MAX TEMP: 66; Chicago Midway MOSUNNY 67 60 78 SE5 30.18R 6HR MIN TEMP: 66; 6HR MAX TEMP: 69; Houston Bush CLOUDY 78 74 87 S3 30.08R 6HR MIN TEMP: 78; 6HR MAX TEMP: 82; Houston Hobby MOCLDY 81 74 79 CALM 30.07R 6HR MIN TEMP: 79; 6HR MAX TEMP: 81; Nashville MOSUNNY 79 75 87 NW3 30.10R 6HR MIN TEMP: 76; 6HR MAX TEMP: 80; Atlanta CLOUDY 75 71 87 W5 30.10R 6HR MIN TEMP: 73; 6HR MAX TEMP: 75; $$ GAZ044-118-TXZ119-213-NCZ071-DCZ001-MDZ014-506-PAZ021-071-NJZ106- NYZ176-178-MAZ106-OHZ011-021-055-MIZ076-KYZ091-ILZ014-INZ047- MNZ060-ONZ431-251300- ...Gateway Observations for Savannah International... CITY SKY/WX TMP DP RH WIND PRES REMARKS Savannah Arpt PTSUNNY 77 73 87 SW6 30.09R Atlanta CLOUDY 75 71 87 W5 30.10R 6HR MIN TEMP: 73; 6HR MAX TEMP: 75; Charlotte PTSUNNY 76 73 91 CALM 30.09R 6HR MIN TEMP: 73; 6HR MAX TEMP: 77; Dallas DFW PTCLDY 78 73 84 S8 30.04R 6HR MIN TEMP: 78; 6HR MAX TEMP: 81; Houston Bush CLOUDY 78 74 87 S3 30.08R 6HR MIN TEMP: 78; 6HR MAX TEMP: 82; Wash National PTSUNNY 72 58 61 N9 30.06R 6HR MIN TEMP: 71; 6HR MAX TEMP: 78; Wash Dulles MOSUNNY 70 57 63 NW12 30.07R 6HR MIN TEMP: 66; 6HR MAX TEMP: 75; Baltimore MOSUNNY 69 60 73 NW8 30.04R 6HR MIN TEMP: 65; 6HR MAX TEMP: 73; Philadelphia CLOUDY 68 64 87 E7 30.03R 6HR MIN TEMP: 66; 6HR MAX TEMP: 68; 6HR PCP: TRACE; Newark CLOUDY 64 60 87 N10 30.04R 6HR MIN TEMP: 62; 6HR MAX TEMP: 65; 6HR PCP: TRACE; Laguardia CLOUDY 64 61 90 N7 30.04R 6HR MIN TEMP: 62; 6HR MAX TEMP: 65; J F K PTSUNNY 65 60 84 NE9 30.04R 6HR MIN TEMP: 63; 6HR MAX TEMP: 65; Boston CLOUDY 57 55 93 N10 30.07R 6HR MIN TEMP: 56; 6HR MAX TEMP: 58; Pittsburg CLOUDY 63 57 81 NW9 30.16R 6HR MIN TEMP: 62; 6HR MAX TEMP: 65; Akron CLOUDY 64 54 69 N6 30.18R 6HR MIN TEMP: 63; 6HR MAX TEMP: 64; Cleveland CLOUDY 68 57 68 N12 30.20R 6HR MIN TEMP: 67; 6HR MAX TEMP: 68; Cincinnati MOSUNNY 65 61 87 E8 30.18R 6HR MIN TEMP: 64; 6HR MAX TEMP: 69; Columbus SUNNY 61 60 97 CALM 30.19R Detroit MOSUNNY 62 52 69 N6 30.22R 6HR MIN TEMP: 56; 6HR MAX TEMP: 62; Chicago O`Hare MOSUNNY 66 62 87 CALM 30.18R 6HR MIN TEMP: 61; 6HR MAX TEMP: 66; Minneapolis CLOUDY 68 61 78 S13 30.04S 6HR MIN TEMP: 67; 6HR MAX TEMP: 69; 6HR PCP: TRACE; Indianapolis MOSUNNY 65 57 75 E9 30.18R 6HR MIN TEMP: 63; 6HR MAX TEMP: 69; Toronto Canada PTSUNNY 63 55 77 N12G18 30.15R $$

USA.gov is the U.S. government's official web portal to all federal, state and local government web resources and services.